Location: B�rgermoos
(47.6500°N, 9.0667°E)
Time: 18:39:50
(UTC+00:00)

A-11 Canister half - Pass Details

Date: 06 August 2021
Orbit: 1526 x 1683 km, 47.3° (Epoch: 20 September)

Event Time Altitude Azimuth Distance (km) Brightness Sun altitude
Rises 14:33:18 0° 288° (WNW) 4,925 12.2 41.3°
Reaches altitude 10° 14:36:31 10° 285° (WNW) 3,924 11.9 40.8°
Maximum altitude 14:46:20 62° 208° (SSW) 1,804 10.5 39.2°
Drops below altitude 10° 14:55:50 10° 131° (SE) 3,800 10.9 37.7°
Sets 14:58:55 0° 128° (SE) 4,762 11.3 37.2°
